Shishmaref, AK

7:14 AM AKDT on May 28, 2017 (GMT -0800)
New Shishmaref

Weather History for PASH - October, 2013

Change the Weather History Date:

Wednesday, October 30, 2013

  Actual Average Record
Temperature  
Mean Temperature 29 °F -  
Max Temperature 30 °F 24 °F 37 °F (2002)
Min Temperature 28 °F 19 °F 6 °F (2001)
Degree Days  
Heating Degree Days 36    
Moisture  
Dew Point 22 °F    
Average Humidity 75    
Maximum Humidity 86    
Minimum Humidity 69    
Precipitation  
Precipitation 0.00 in - - ()
Sea Level Pressure  
Sea Level Pressure 29.50 in    
Wind  
Wind Speed 11 mph (NNW)    
Max Wind Speed 16 mph    
Max Gust Speed 20 mph    
Visibility 10 miles    
Events      
Averages and records for this station are not official NWS values.
T = Trace of Precipitation, MM = Missing Value Source: NWS Daily Summary

Daily Weather History Graph

Daily Weather History Graph

Search for Another Location

Airport or City:

Trip Planner

Search our weather history database for the weather conditions in past years. The results will help you decide how hot, cold, wet, or windy it might be!

Date:

Astronomy

Oct. 30, 2013 Rise Set
Actual Time 10:56 AM AKDT 6:38 PM AKDT
Civil Twilight 9:57 AM AKDT 7:36 PM AKDT
Nautical Twilight 8:55 AM AKDT 8:38 PM AKDT
Astronomical Twilight 7:55 AM AKDT 9:38 PM AKDT
Moon 5:26 AM AKDT (10/30) 5:49 PM AKDT (10/30)
Length of Visible Light 9h 39m
Length of Day
7h 42m
Waning Crescent, 16% of the Moon is Illuminated
Oct 30
Waning Crescent
Nov 3
New
Nov 9
First Quarter
Nov 17
Full
Nov 25
Last Quarter

Hourly Weather History & Observations

Time (AKDT) Temp. Windchill Dew Point Humidity Pressure Visibility Wind Dir Wind Speed Gust Speed Precip Events Conditions
12:16 AM 30.2 °F 21.3 °F 21.2 °F 69% 29.54 in 10.0 mi North 10.4 mph - N/A   Overcast
12:36 AM 30.2 °F 20.8 °F 21.2 °F 69% 29.53 in 10.0 mi North 11.5 mph - N/A   Overcast
12:56 AM 30.2 °F 21.3 °F 21.2 °F 69% 29.53 in 10.0 mi NNW 10.4 mph - N/A   Overcast
1:16 AM 28.4 °F 19.1 °F 21.2 °F 74% 29.53 in 10.0 mi NW 10.4 mph - N/A   Overcast
1:36 AM 28.4 °F 20.4 °F 19.4 °F 69% 29.53 in 10.0 mi NNW 8.1 mph - N/A   Overcast
1:56 AM 28.4 °F 19.7 °F 19.4 °F 69% 29.53 in 10.0 mi NNW 9.2 mph - N/A   Overcast
2:16 AM 28.4 °F 19.7 °F 21.2 °F 74% 29.53 in 10.0 mi NNW 9.2 mph - N/A   Overcast
2:36 AM 28.4 °F 19.1 °F 21.2 °F 74% 29.52 in 10.0 mi NNW 10.4 mph - N/A   Overcast
2:56 AM 28.4 °F 19.7 °F 21.2 °F 74% 29.52 in 10.0 mi North 9.2 mph - N/A   Overcast
3:16 AM 28.4 °F 18.5 °F 19.4 °F 69% 29.52 in 10.0 mi NNW 11.5 mph - N/A   Overcast
3:36 AM 28.4 °F 19.1 °F 19.4 °F 69% 29.51 in 10.0 mi North 10.4 mph - N/A   Overcast
3:56 AM 28.4 °F 18.5 °F 19.4 °F 69% 29.51 in 10.0 mi North 11.5 mph - N/A   Overcast
4:16 AM 28.4 °F 19.7 °F 19.4 °F 69% 29.51 in 10.0 mi NW 9.2 mph - N/A   Overcast
4:36 AM 28.4 °F 20.4 °F 21.2 °F 74% 29.51 in 10.0 mi North 8.1 mph - N/A   Overcast
4:56 AM 28.4 °F 21.2 °F 19.4 °F 69% 29.50 in 10.0 mi NNW 6.9 mph - N/A   Overcast
5:16 AM 28.4 °F 20.4 °F 19.4 °F 69% 29.50 in 10.0 mi NW 8.1 mph - N/A   Overcast
5:36 AM 28.4 °F 21.2 °F 19.4 °F 69% 29.50 in 10.0 mi NNW 6.9 mph - N/A   Overcast
5:56 AM 28.4 °F 19.7 °F 21.2 °F 74% 29.49 in 10.0 mi NNW 9.2 mph - N/A   Overcast
6:16 AM 28.4 °F 19.7 °F 21.2 °F 74% 29.49 in 10.0 mi North 9.2 mph - N/A   Overcast
6:36 AM 28.4 °F 18.5 °F 21.2 °F 74% 29.49 in 10.0 mi North 11.5 mph - N/A   Overcast
6:56 AM 28.4 °F 19.7 °F 21.2 °F 74% 29.49 in 10.0 mi North 9.2 mph - N/A   Overcast
7:16 AM 28.4 °F 19.7 °F 19.4 °F 69% 29.49 in 10.0 mi North 9.2 mph - N/A   Overcast
7:36 AM 28.4 °F 19.1 °F 19.4 °F 69% 29.49 in 10.0 mi NNW 10.4 mph - N/A   Overcast
7:56 AM 30.2 °F 20.8 °F 21.2 °F 69% 29.48 in 10.0 mi North 11.5 mph - N/A   Overcast
8:16 AM 28.4 °F 19.1 °F 21.2 °F 74% 29.48 in 10.0 mi NNW 10.4 mph - N/A   Overcast
8:36 AM 28.4 °F 18.0 °F 21.2 °F 74% 29.48 in 10.0 mi NNW 12.7 mph - N/A   Overcast
8:56 AM 28.4 °F 16.6 °F 21.2 °F 74% 29.47 in 10.0 mi NNW 16.1 mph - N/A   Overcast
9:16 AM 28.4 °F 17.5 °F 21.2 °F 74% 29.47 in 10.0 mi NNW 13.8 mph - N/A   Overcast
9:36 AM 28.4 °F 19.7 °F 21.2 °F 74% 29.48 in 10.0 mi NNW 9.2 mph - N/A   Overcast
9:56 AM 28.4 °F 18.5 °F 21.2 °F 74% 29.48 in 10.0 mi NNW 11.5 mph - N/A   Overcast
10:16 AM 28.4 °F 18.0 °F 21.2 °F 74% 29.48 in 10.0 mi NNW 12.7 mph 19.6 mph N/A   Overcast
10:36 AM 28.4 °F 18.0 °F 21.2 °F 74% 29.48 in 10.0 mi NNW 12.7 mph - N/A   Overcast
10:56 AM 28.4 °F 18.5 °F 21.2 °F 74% 29.48 in 10.0 mi North 11.5 mph - N/A   Overcast
11:16 AM 28.4 °F 17.5 °F 21.2 °F 74% 29.48 in 10.0 mi NNW 13.8 mph - N/A   Overcast
11:36 AM 28.4 °F 18.5 °F 21.2 °F 74% 29.48 in 10.0 mi NW 11.5 mph - N/A   Overcast
11:56 AM 28.4 °F 19.1 °F 21.2 °F 74% 29.48 in 10.0 mi North 10.4 mph - N/A   Overcast
12:16 PM 28.4 °F 19.1 °F 19.4 °F 69% 29.48 in 10.0 mi NW 10.4 mph - N/A   Overcast
12:36 PM 28.4 °F 19.1 °F 21.2 °F 74% 29.48 in 10.0 mi NNW 10.4 mph - N/A   Overcast
12:56 PM 28.4 °F 19.7 °F 23.0 °F 80% 29.48 in 10.0 mi NW 9.2 mph - N/A   Overcast
1:16 PM 28.4 °F 19.7 °F 24.8 °F 86% 29.48 in 10.0 mi NNW 9.2 mph - N/A   Overcast
1:36 PM 28.4 °F 19.7 °F 24.8 °F 86% 29.48 in 10.0 mi NW 9.2 mph - N/A   Overcast
1:56 PM 28.4 °F 19.1 °F 24.8 °F 86% 29.49 in 10.0 mi NW 10.4 mph - N/A   Overcast
2:16 PM 28.4 °F 19.7 °F 24.8 °F 86% 29.49 in 10.0 mi NNW 9.2 mph - N/A   Overcast
2:36 PM 28.4 °F 20.4 °F 24.8 °F 86% 29.49 in 10.0 mi NNW 8.1 mph - N/A   Overcast
2:56 PM 28.4 °F 18.5 °F 24.8 °F 86% 29.49 in 10.0 mi NW 11.5 mph - N/A   Overcast
3:16 PM 30.2 °F 20.8 °F 24.8 °F 80% 29.49 in 10.0 mi NW 11.5 mph - N/A   Overcast
3:36 PM 30.2 °F 20.2 °F 24.8 °F 80% 29.49 in 10.0 mi NNW 12.7 mph - N/A   Overcast
3:56 PM 30.2 °F 19.8 °F 24.8 °F 80% 29.49 in 10.0 mi NNW 13.8 mph - N/A   Overcast
4:16 PM 30.2 °F 20.8 °F 24.8 °F 80% 29.49 in 10.0 mi NNW 11.5 mph - N/A   Overcast
4:36 PM 30.2 °F 20.2 °F 24.8 °F 80% 29.49 in 10.0 mi NNW 12.7 mph - N/A   Overcast
4:56 PM 30.2 °F 20.8 °F 24.8 °F 80% 29.49 in 10.0 mi NNW 11.5 mph - N/A   Overcast
5:16 PM 30.2 °F 20.8 °F 24.8 °F 80% 29.50 in 10.0 mi NNW 11.5 mph - N/A   Overcast
5:56 PM 30.2 °F 20.8 °F 23.0 °F 75% 29.50 in 10.0 mi NNW 11.5 mph - N/A   Overcast
6:16 PM 30.2 °F 19.8 °F 24.8 °F 80% 29.50 in 10.0 mi NNW 13.8 mph - N/A   Overcast
6:36 PM 30.2 °F 21.9 °F 21.2 °F 69% 29.51 in 10.0 mi North 9.2 mph - N/A   Overcast
6:56 PM 30.2 °F 20.8 °F 23.0 °F 75% 29.51 in 10.0 mi NNW 11.5 mph - N/A   Overcast
7:16 PM 30.2 °F 20.8 °F 24.8 °F 80% 29.51 in 10.0 mi NNW 11.5 mph - N/A   Overcast
7:36 PM 30.2 °F 21.3 °F 24.8 °F 80% 29.51 in 10.0 mi North 10.4 mph - N/A   Overcast
7:56 PM 30.2 °F 21.3 °F 23.0 °F 75% 29.52 in 10.0 mi North 10.4 mph - N/A   Overcast
8:16 PM 30.2 °F 21.3 °F 21.2 °F 69% 29.53 in 10.0 mi NNW 10.4 mph 18.4 mph N/A   Overcast
8:36 PM 30.2 °F 20.2 °F 23.0 °F 75% 29.52 in 10.0 mi North 12.7 mph - N/A   Overcast
8:56 PM 30.2 °F 20.8 °F 21.2 °F 69% 29.53 in 10.0 mi North 11.5 mph - N/A   Overcast
9:16 PM 30.2 °F 19.3 °F 24.8 °F 80% 29.53 in 10.0 mi North 15.0 mph - N/A   Overcast
9:36 PM 30.2 °F 19.8 °F 24.8 °F 80% 29.54 in 10.0 mi North 13.8 mph - N/A   Overcast
9:56 PM 30.2 °F 18.9 °F 24.8 °F 80% 29.54 in 10.0 mi North 16.1 mph - N/A   Overcast
10:16 PM 30.2 °F 20.2 °F 21.2 °F 69% 29.54 in 10.0 mi North 12.7 mph - N/A   Overcast
10:36 PM 30.2 °F 19.8 °F 24.8 °F 80% 29.54 in 10.0 mi NNW 13.8 mph - N/A   Overcast
10:56 PM 30.2 °F 20.8 °F 23.0 °F 75% 29.55 in 10.0 mi North 11.5 mph - N/A   Overcast
11:16 PM 30.2 °F 20.8 °F 21.2 °F 69% 29.56 in 10.0 mi NNW 11.5 mph - N/A   Overcast
11:36 PM 30.2 °F 19.8 °F 21.2 °F 69% 29.56 in 10.0 mi NNW 13.8 mph 18.4 mph N/A   Overcast
11:56 PM 30.2 °F 19.8 °F 23.0 °F 75% 29.57 in 10.0 mi North 13.8 mph - N/A   Overcast